When you browse on this site, cookies collect data to enhance your experience and personalize the content and advertising you see.
Visit our Privacy Policy to learn more. By continuing to use the site, you agree to this use of cookies and data.
  • In Österreich
  • Länderverzeichnis
  • Für 7 Tage
  • Wassertemperatur
  • Satellitenkarten
  • Wetterkarte
  • News
  • Widgets
  • user-avatar
    Anmelden

    Stündliche Wetter Bautzen

    Heute, 22 April, Montag

    Zeit Temperatur Niederschläge Wind Luftdruck Luftfeuchtigkeit
    00:00 +10°C° 0 mm 1 m/S 746 mmHg 67%
    01:00 +10°C° 0 mm 1 m/S 746 mmHg 65%
    02:00 +8°C° 0 mm 2 m/S 745 mmHg 67%
    03:00 +7°C° 0 mm 2 m/S 745 mmHg 68%
    04:00 +7°C° 0 mm 2 m/S 745 mmHg 70%
    05:00 +8°C° 0 mm 3 m/S 745 mmHg 69%
    06:00 +8°C° 0 mm 3 m/S 745 mmHg 68%
    07:00 +9°C° 0 mm 3 m/S 745 mmHg 62%
    08:00 +11°C° 0 mm 4 m/S 745 mmHg 56%
    09:00 +12°C° 0 mm 5 m/S 745 mmHg 51%
    10:00 +13°C° 0 mm 6 m/S 745 mmHg 45%
    11:00 +14°C° 0 mm 6 m/S 745 mmHg 44%
    12:00 +14°C° 0 mm 7 m/S 744 mmHg 44%
    13:00 +15°C° 0 mm 7 m/S 744 mmHg 43%
    14:00 +15°C° 0 mm 7 m/S 744 mmHg 45%
    15:00 +15°C° 0 mm 7 m/S 743 mmHg 47%
    16:00 +14°C° 0 mm 7 m/S 743 mmHg 48%
    17:00 +13°C° 0 mm 6 m/S 743 mmHg 53%
    18:00 +12°C° 0 mm 5 m/S 742 mmHg 58%
    19:00 +11°C° 0 mm 4 m/S 742 mmHg 62%
    20:00 +10°C° 0 mm 5 m/S 742 mmHg 63%
    21:00 +10°C° 0 mm 5 m/S 742 mmHg 63%
    22:00 +10°C° 0 mm 6 m/S 742 mmHg 64%
    23:00 +10°C° 0 mm 6 m/S 742 mmHg 65%

    Morgen, 23 April, Dienstag

    Zeit Temperatur Niederschläge Wind Luftdruck Luftfeuchtigkeit
    00:00 +9°C° 0 mm 5 m/S 742 mmHg 67%
    01:00 +9°C° 0 mm 5 m/S 741 mmHg 69%
    02:00 +8°C° 0 mm 5 m/S 741 mmHg 70%
    03:00 +8°C° 0 mm 5 m/S 740 mmHg 72%
    04:00 +7°C° 0 mm 5 m/S 740 mmHg 73%
    05:00 +8°C° 0 mm 5 m/S 740 mmHg 72%
    06:00 +9°C° 0 mm 6 m/S 740 mmHg 70%
    07:00 +10°C° 0 mm 6 m/S 739 mmHg 69%
    08:00 +11°C° 0 mm 7 m/S 739 mmHg 67%
    09:00 +12°C° 0 mm 7 m/S 739 mmHg 65%
    10:00 +15°C° 0 mm 8 m/S 739 mmHg 63%
    11:00 +15°C° 0 mm 8 m/S 739 mmHg 64%
    12:00 +15°C° 0 mm 8 m/S 738 mmHg 65%
    13:00 +15°C° 0 mm 8 m/S 738 mmHg 66%
    14:00 +14°C° 0.3 mm 7 m/S 738 mmHg 70%
    15:00 +14°C° 0.3 mm 6 m/S 737 mmHg 73%
    16:00 +13°C° 0.3 mm 6 m/S 737 mmHg 77%
    17:00 +11°C° 0 mm 6 m/S 737 mmHg 77%
    18:00 +11°C° 0 mm 6 m/S 737 mmHg 77%
    19:00 +10°C° 0 mm 6 m/S 737 mmHg 77%
    20:00 +10°C° 0 mm 6 m/S 737 mmHg 77%
    21:00 +9°C° 0 mm 6 m/S 737 mmHg 78%
    22:00 +9°C° 0 mm 6 m/S 737 mmHg 78%
    23:00 +9°C° 0 mm 6 m/S 737 mmHg 78%

    übermorgen, 24 April, Mittwoch

    Zeit Temperatur Niederschläge Wind Luftdruck Luftfeuchtigkeit
    00:00 +10°C° 0 mm 6 m/S 737 mmHg 78%
    01:00 +10°C° 0 mm 6 m/S 737 mmHg 78%
    02:00 +10°C° 0 mm 6 m/S 737 mmHg 78%
    03:00 +10°C° 0 mm 5 m/S 737 mmHg 79%
    04:00 +10°C° 0 mm 5 m/S 737 mmHg 79%
    05:00 +11°C° 0 mm 6 m/S 737 mmHg 78%
    06:00 +13°C° 0 mm 6 m/S 737 mmHg 76%
    07:00 +12°C° 0 mm 7 m/S 738 mmHg 75%
    08:00 +15°C° 0 mm 6 m/S 738 mmHg 72%
    09:00 +16°C° 0 mm 6 m/S 738 mmHg 68%
    10:00 +17°C° 0 mm 6 m/S 739 mmHg 65%
    11:00 +19°C° 0 mm 6 m/S 739 mmHg 62%
    12:00 +20°C° 0 mm 5 m/S 739 mmHg 60%
    13:00 +22°C° 0 mm 5 m/S 739 mmHg 57%
    14:00 +22°C° 0 mm 5 m/S 739 mmHg 58%
    15:00 +22°C° 0 mm 5 m/S 739 mmHg 58%
    16:00 +22°C° 0 mm 5 m/S 739 mmHg 59%
    17:00 +20°C° 0 mm 4 m/S 739 mmHg 65%
    18:00 +19°C° 0 mm 4 m/S 739 mmHg 72%
    19:00 +17°C° 0 mm 3 m/S 738 mmHg 79%
    20:00 +17°C° 0 mm 3 m/S 739 mmHg 81%
    21:00 +15°C° 0 mm 4 m/S 739 mmHg 83%
    22:00 +14°C° 0 mm 4 m/S 739 mmHg 85%
    23:00 +14°C° 0 mm 4 m/S 739 mmHg 86%

    25 April, Donnerstag

    Zeit Temperatur Niederschläge Wind Luftdruck Luftfeuchtigkeit
    00:00 +14°C° 0 mm 3 m/S 740 mmHg 87%
    01:00 +13°C° 0 mm 3 m/S 740 mmHg 88%
    02:00 +13°C° 0 mm 3 m/S 740 mmHg 90%
    03:00 +13°C° 0 mm 2 m/S 741 mmHg 92%
    04:00 +12°C° 0 mm 2 m/S 741 mmHg 94%
    05:00 +13°C° 0 mm 2 m/S 741 mmHg 90%
    06:00 +14°C° 0 mm 2 m/S 741 mmHg 86%
    07:00 +15°C° 0 mm 2 m/S 742 mmHg 82%
    08:00 +17°C° 0 mm 2 m/S 742 mmHg 75%
    09:00 +19°C° 0 mm 2 m/S 742 mmHg 67%
    10:00 +21°C° 0 mm 2 m/S 742 mmHg 60%
    11:00 +22°C° 0 mm 3 m/S 741 mmHg 57%
    12:00 +24°C° 0 mm 3 m/S 741 mmHg 54%
    13:00 +25°C° 0 mm 4 m/S 741 mmHg 50%
    14:00 +26°C° 0 mm 4 m/S 741 mmHg 51%
    15:00 +26°C° 0 mm 4 m/S 740 mmHg 51%
    16:00 +26°C° 0 mm 4 m/S 740 mmHg 51%
    17:00 +24°C° 0 mm 3 m/S 740 mmHg 59%
    18:00 +21°C° 0 mm 2 m/S 739 mmHg 66%
    19:00 +19°C° 0 mm 2 m/S 739 mmHg 73%
    20:00 +18°C° 0 mm 2 m/S 739 mmHg 76%
    21:00 +17°C° 0 mm 2 m/S 739 mmHg 78%
    22:00 +17°C° 0 mm 2 m/S 739 mmHg 80%
    23:00 +16°C° 0 mm 2 m/S 739 mmHg 81%

    26 April, Freitag

    Zeit Temperatur Niederschläge Wind Luftdruck Luftfeuchtigkeit
    00:00 +16°C° 0 mm 2 m/S 739 mmHg 82%
    01:00 +15°C° 0 mm 1 m/S 739 mmHg 83%
    02:00 +15°C° 0.2 mm 2 m/S 739 mmHg 84%
    03:00 +15°C° 0.2 mm 2 m/S 739 mmHg 86%
    04:00 +14°C° 0.2 mm 2 m/S 739 mmHg 87%
    05:00 +15°C° 0.3 mm 2 m/S 739 mmHg 87%
    06:00 +16°C° 0.3 mm 3 m/S 739 mmHg 87%
    07:00 +16°C° 0.3 mm 3 m/S 739 mmHg 87%
    08:00 +15°C° 0.4 mm 4 m/S 739 mmHg 87%
    09:00 +15°C° 0.4 mm 4 m/S 740 mmHg 87%
    10:00 +15°C° 0.4 mm 5 m/S 740 mmHg 87%
    11:00 +14°C° 0.8 mm 5 m/S 740 mmHg 88%
    12:00 +14°C° 0.8 mm 5 m/S 741 mmHg 88%
    13:00 +13°C° 0.8 mm 6 m/S 741 mmHg 88%
    14:00 +13°C° 0.1 mm 6 m/S 742 mmHg 88%
    15:00 +12°C° 0.1 mm 5 m/S 742 mmHg 88%
    16:00 +12°C° 0.1 mm 5 m/S 742 mmHg 88%
    17:00 +10°C° 0.3 mm 5 m/S 743 mmHg 90%
    18:00 +9°C° 0.3 mm 5 m/S 743 mmHg 91%
    19:00 +9°C° 0.3 mm 5 m/S 743 mmHg 92%
    20:00 +8°C° 0.1 mm 5 m/S 744 mmHg 92%
    21:00 +8°C° 0.1 mm 4 m/S 744 mmHg 93%
    22:00 +8°C° 0.1 mm 4 m/S 744 mmHg 93%
    23:00 +8°C° 0.1 mm 4 m/S 744 mmHg 92%

    27 April, Samstag

    Zeit Temperatur Niederschläge Wind Luftdruck Luftfeuchtigkeit
    00:00 +9°C° 0.1 mm 3 m/S 745 mmHg 91%
    01:00 +9°C° 0.1 mm 3 m/S 745 mmHg 91%
    02:00 +9°C° 0.2 mm 3 m/S 745 mmHg 91%
    03:00 +9°C° 0.2 mm 3 m/S 745 mmHg 91%
    04:00 +9°C° 0.2 mm 3 m/S 746 mmHg 91%
    05:00 +9°C° 0.1 mm 3 m/S 746 mmHg 90%
    06:00 +8°C° 0.1 mm 4 m/S 746 mmHg 89%
    07:00 +10°C° 0.1 mm 4 m/S 746 mmHg 89%
    08:00 +11°C° 0 mm 4 m/S 747 mmHg 85%
    09:00 +12°C° 0 mm 5 m/S 747 mmHg 80%
    10:00 +13°C° 0 mm 5 m/S 747 mmHg 76%
    11:00 +14°C° 0.1 mm 5 m/S 747 mmHg 71%
    12:00 +15°C° 0.1 mm 6 m/S 748 mmHg 66%
    13:00 +16°C° 0.1 mm 6 m/S 748 mmHg 61%
    14:00 +15°C° 0 mm 6 m/S 748 mmHg 62%
    15:00 +15°C° 0 mm 6 m/S 748 mmHg 63%
    16:00 +15°C° 0 mm 6 m/S 748 mmHg 64%
    17:00 +13°C° 0 mm 5 m/S 748 mmHg 69%
    18:00 +12°C° 0 mm 4 m/S 748 mmHg 74%
    19:00 +12°C° 0 mm 2 m/S 748 mmHg 80%
    20:00 +10°C° 0 mm 2 m/S 749 mmHg 82%
    21:00 +9°C° 0 mm 2 m/S 749 mmHg 85%
    22:00 +8°C° 0 mm 2 m/S 749 mmHg 87%
    23:00 +8°C° 0 mm 2 m/S 749 mmHg 87%
    Mehr zeigen